period_start,C,m1,H,J0,J1,J2,J3,J4,J5,JA,JB,JC,JD,JJ,JK,JN,#
2013-08-24 00:00:14,0.03,0.08,0.00,23.80,26.57,27.96,5.75,30.33,1016.17,2054.00,3463.11,3346.00,3627.44,349.27,322.11,16.42,0000 0000 0000 0000 000000
2013-08-24 00:01:14,0.01,0.08,0.00,23.80,26.57,27.96,5.91,30.54,1016.14,2054.04,3463.16,3346.00,3627.65,349.19,322.20,16.42,0000 0000 0000 0000 000000
2013-08-24 00:02:14,0.00,0.08,0.00,23.79,26.57,27.92,5.94,30.38,1016.17,2054.06,3463.08,3346.00,3627.54,349.42,322.65,16.43,0000 0000 0000 0000 000000
2013-08-24 00:03:14,0.02,0.08,0.00,23.76,26.57,27.93,5.92,30.46,1016.15,2054.04,3463.13,3346.00,3627.55,348.83,321.91,16.44,0000 0000 0000 0000 000000
2013-08-24 00:04:15,-0.02,0.08,0.00,23.80,26.57,27.92,5.93,30.33,1016.15,2054.03,3463.13,3346.00,3627.65,350.45,323.36,16.44,0000 0000 0000 0000 000000
2013-08-24 00:05:15,-0.02,0.08,0.00,23.87,26.57,27.91,5.80,30.63,1016.15,2054.02,3463.08,3346.00,3627.49,349.20,322.57,16.45,0000 0000 0000 0000 000000
2013-08-24 00:06:16,0.02,0.08,0.00,23.86,26.57,27.90,5.91,30.42,1016.14,2054.02,3463.07,3346.00,3627.30,348.93,321.88,16.45,0000 0000 0000 0000 000000
2013-08-24 00:07:16,0.02,0.08,0.00,23.87,26.57,27.92,6.01,30.50,1016.13,2054.02,3463.05,3346.00,3627.16,351.25,323.75,16.46,0000 0000 0000 0000 000000
2013-08-24 00:08:16,0.00,0.08,0.00,23.86,26.57,27.93,5.97,30.50,1016.15,2054.01,3463.03,3346.00,3627.18,350.85,324.05,16.47,0000 0000 0000 0000 000000
2013-08-24 00:09:17,-0.01,0.08,0.00,23.89,26.57,27.95,5.88,30.33,1016.15,2054.01,3463.02,3346.00,3627.24,349.28,322.18,16.47,0000 0000 0000 0000 000000
2013-08-24 00:10:17,0.00,0.08,0.00,23.81,26.57,27.94,5.94,30.25,1016.14,2054.03,3463.04,3346.00,3627.41,350.94,323.78,16.48,0000 0000 0000 0000 000000
2013-08-24 00:11:17,0.00,0.08,0.00,23.78,26.57,27.98,5.82,30.50,1016.15,2054.03,3463.05,3346.00,3627.36,348.94,321.95,16.48,0000 0000 0000 0000 000000
2013-08-24 00:12:17,0.00,0.08,0.00,23.82,26.57,27.94,5.87,30.50,1016.14,2054.03,3463.04,3346.00,3627.29,349.56,321.98,16.49,0000 0000 0000 0000 000000
2013-08-24 00:13:18,-0.01,0.08,0.00,23.89,26.57,27.92,5.93,30.58,1016.14,2054.02,3463.04,3346.00,3627.27,348.72,321.67,16.50,0000 0000 0000 0000 000000
2013-08-24 00:14:18,0.00,0.08,0.00,23.87,26.57,27.93,5.88,30.54,1016.15,2054.07,3463.07,3346.00,3627.18,349.48,322.51,16.50,0000 0000 0000 0000 000000
2013-08-24 00:15:18,0.03,0.08,0.00,23.84,26.57,27.93,5.85,30.42,1016.17,2054.05,3463.03,3346.00,3627.14,349.07,322.17,16.51,0000 0000 0000 0000 000000
2013-08-24 00:16:18,-0.01,0.08,0.00,23.81,26.57,27.98,5.93,30.46,1016.13,2054.03,3463.01,3346.00,3627.17,349.56,322.91,16.51,0000 0000 0000 0000 000000
2013-08-24 00:17:19,-0.00,0.08,0.00,23.81,26.57,27.95,5.93,30.75,1016.15,2054.01,3463.01,3346.00,3627.13,349.02,322.04,16.52,0000 0000 0000 0000 000000
2013-08-24 00:18:19,0.00,0.08,0.00,23.77,26.56,27.94,5.92,30.29,1016.13,2054.03,3463.00,3346.00,3627.13,351.21,323.45,16.52,0000 0000 0000 0000 000000
2013-08-24 00:19:19,0.01,0.08,0.00,23.79,26.57,27.96,5.90,30.42,1016.14,2054.04,3463.01,3346.00,3627.10,349.46,322.14,16.53,0000 0000 0000 0000 000000
2013-08-24 00:20:20,0.00,0.08,0.00,23.83,26.57,27.97,5.76,30.33,1016.15,2054.05,3463.02,3346.00,3627.08,348.82,321.82,16.54,0000 0000 0000 0000 000000
2013-08-24 00:21:20,0.01,0.08,0.00,23.82,26.56,27.98,6.07,30.46,1016.15,2054.04,3463.02,3346.00,3627.04,350.21,323.12,16.54,0000 0000 0000 0000 000000
2013-08-24 00:22:20,-0.01,0.08,0.00,23.85,26.56,27.97,6.01,30.50,1016.16,2054.02,3463.01,3346.00,3627.04,350.04,323.07,16.55,0000 0000 0000 0000 000000
2013-08-24 00:23:20,-0.01,0.08,0.00,23.86,26.56,27.97,5.97,30.38,1016.17,2054.02,3463.01,3346.00,3627.06,349.26,322.19,16.55,0000 0000 0000 0000 000000
2013-08-24 00:24:21,0.00,0.08,0.00,23.90,26.56,27.96,6.00,30.42,1016.22,2054.03,3463.00,3346.00,3627.02,349.90,322.97,16.56,0000 0000 0000 0000 000000
2013-08-24 00:25:21,0.00,0.08,0.00,23.85,26.56,27.97,5.86,30.21,1016.18,2054.03,3463.00,3346.00,3627.05,349.50,322.58,16.57,0000 0000 0000 0000 000000
2013-08-24 00:26:21,0.00,0.08,0.00,23.85,26.56,27.93,5.90,30.75,1016.16,2054.05,3463.00,3346.00,3627.06,348.87,322.36,16.57,0000 0000 0000 0000 000000
2013-08-24 00:27:22,0.00,0.08,0.00,23.90,26.56,27.94,5.98,30.75,1016.16,2054.05,3463.00,3346.00,3627.04,349.63,322.51,16.58,0000 0000 0000 0000 000000
2013-08-24 00:28:22,0.00,0.08,0.00,23.84,26.56,27.95,5.92,30.29,1016.23,2054.05,3463.00,3345.99,3627.12,350.23,323.13,16.58,0000 0000 0000 0000 000000
2013-08-24 00:29:22,-0.01,0.08,0.00,23.83,26.56,27.95,5.97,30.42,1016.25,2054.03,3463.00,3345.99,3627.10,349.95,323.05,16.59,0000 0000 0000 0000 000000
2013-08-24 00:30:22,-0.00,0.08,0.00,23.81,26.56,27.96,6.01,30.25,1016.23,2054.04,3463.00,3345.99,3627.07,351.00,323.99,16.59,0000 0000 0000 0000 000000
2013-08-24 00:31:23,0.01,0.08,0.00,23.81,26.56,27.91,6.02,30.50,1016.19,2054.03,3463.00,3345.99,3627.03,350.10,323.09,16.60,0000 0000 0000 0000 000000
2013-08-24 00:32:23,0.01,0.08,0.00,23.83,26.56,27.92,5.91,30.54,1016.22,2054.06,3463.00,3345.98,3627.03,349.48,322.47,16.61,0000 0000 0000 0000 000000
2013-08-24 00:33:23,0.01,0.08,0.00,23.79,26.56,27.94,5.95,30.29,1016.15,2054.06,3463.00,3345.98,3627.01,350.48,323.08,16.61,0000 0000 0000 0000 000000
2013-08-24 00:34:24,-0.01,0.08,0.00,23.88,26.56,27.98,6.04,30.42,1016.21,2054.04,3463.00,3345.99,3627.03,350.58,323.48,16.62,0000 0000 0000 0000 000000
2013-08-24 00:35:24,-0.01,0.08,0.00,23.92,26.56,27.90,5.83,30.58,1016.17,2054.05,3463.00,3345.99,3627.04,348.82,321.94,16.62,0000 0000 0000 0000 000000
2013-08-24 00:36:24,0.01,0.08,0.00,23.89,26.56,27.90,6.03,30.38,1016.16,2054.06,3463.00,3345.99,3627.04,350.24,323.07,16.63,0000 0000 0000 0000 000000
2013-08-24 00:37:24,0.01,0.08,0.00,23.87,26.56,27.89,5.89,30.33,1016.16,2054.07,3463.00,3345.99,3627.03,350.33,322.97,16.64,0000 0000 0000 0000 000000
2013-08-24 00:38:25,0.00,0.08,0.00,23.86,26.56,27.96,5.88,30.33,1016.18,2054.07,3463.00,3345.99,3627.01,349.94,322.83,16.64,0000 0000 0000 0000 000000
2013-08-24 00:39:25,0.00,0.08,0.00,23.95,26.55,27.97,5.93,30.38,1016.20,2054.04,3463.00,3345.99,3627.00,349.64,322.47,16.65,0000 0000 0000 0000 000000
2013-08-24 00:40:25,-0.01,0.08,0.00,23.97,26.55,27.95,5.87,30.46,1016.18,2054.03,3463.00,3345.98,3627.01,350.12,322.88,16.65,0000 0000 0000 0000 000000
2013-08-24 00:41:25,-0.00,0.08,0.00,23.91,26.55,27.95,5.86,30.67,1016.15,2054.04,3462.99,3345.97,3627.00,349.49,322.19,16.66,0000 0000 0000 0000 000000
2013-08-24 00:42:25,-0.00,0.08,0.00,23.94,26.55,27.99,5.86,30.75,1016.20,2054.03,3462.98,3345.95,3627.00,349.91,322.72,16.67,0000 0000 0000 0000 000000
2013-08-24 00:43:26,0.00,0.08,0.00,23.96,26.55,27.98,5.92,30.67,1016.17,2054.04,3462.99,3345.97,3627.01,349.73,322.53,16.67,0000 0000 0000 0000 000000
2013-08-24 00:44:26,-0.00,0.08,0.00,23.90,26.55,27.99,5.90,30.13,1016.19,2054.02,3462.99,3345.98,3627.01,350.85,323.63,16.68,0000 0000 0000 0000 000000
2013-08-24 00:45:26,-0.01,0.08,0.00,23.91,26.55,27.96,5.88,30.50,1016.16,2054.03,3462.99,3345.99,3627.00,349.79,323.08,16.68,0000 0000 0000 0000 000000
2013-08-24 00:46:26,-0.01,0.08,0.00,23.90,26.55,27.93,5.92,30.17,1016.15,2054.03,3462.99,3345.99,3627.01,350.11,322.67,16.69,0000 0000 0000 0000 000000
2013-08-24 00:47:26,0.00,0.08,0.00,23.88,26.55,27.91,5.89,30.25,1016.14,2054.03,3462.99,3345.99,3627.00,349.91,322.50,16.69,0000 0000 0000 0000 000000
2013-08-24 00:48:27,0.02,0.08,0.00,23.86,26.55,27.92,5.88,30.29,1016.15,2054.05,3462.99,3345.99,3627.01,350.43,323.27,16.70,0000 0000 0000 0000 000000
2013-08-24 00:49:27,0.00,0.08,0.00,23.90,26.55,27.95,5.83,30.38,1016.16,2054.06,3462.99,3345.99,3627.00,350.16,322.98,16.71,0000 0000 0000 0000 000000
2013-08-24 00:50:27,-0.01,0.08,0.00,23.88,26.56,27.93,5.98,30.63,1016.17,2054.06,3462.99,3345.97,3627.00,349.96,323.26,16.71,0000 0000 0000 0000 000000
2013-08-24 00:51:27,0.01,0.08,0.00,23.89,26.55,27.95,5.98,30.42,1016.16,2054.04,3462.99,3345.97,3627.01,350.76,323.95,16.72,0000 0000 0000 0000 000000
2013-08-24 00:52:28,-0.00,0.08,0.00,23.86,26.55,27.90,5.92,30.33,1016.16,2054.02,3462.99,3345.98,3627.00,350.18,323.05,16.72,0000 0000 0000 0000 000000
2013-08-24 00:53:28,-0.01,0.08,0.00,23.86,26.55,27.92,5.97,30.54,1016.14,2054.03,3462.99,3345.97,3627.00,351.01,323.81,16.73,0000 0000 0000 0000 000000
2013-08-24 00:54:28,-0.01,0.08,0.00,23.89,26.55,27.92,5.96,30.38,1016.13,2054.01,3462.99,3345.98,3627.00,350.97,323.73,16.74,0000 0000 0000 0000 000000
2013-08-24 00:55:28,-0.01,0.08,0.00,23.90,26.55,27.89,5.94,30.38,1016.13,2054.02,3462.96,3345.96,3627.00,350.13,322.82,16.74,0000 0000 0000 0000 000000
2013-08-24 00:56:29,0.01,0.08,0.00,23.88,26.55,27.91,5.85,30.21,1016.15,2054.02,3462.97,3345.94,3627.00,350.56,323.54,16.75,0000 0000 0000 0000 000000
2013-08-24 00:57:29,0.01,0.08,0.00,23.88,26.55,27.94,5.96,30.46,1016.13,2054.03,3462.98,3345.94,3627.00,349.78,322.81,16.75,0000 0000 0000 0000 000000
2013-08-24 00:58:29,0.00,0.08,0.00,23.91,26.55,27.93,5.88,30.33,1016.13,2054.01,3462.98,3345.95,3627.00,350.30,323.20,16.76,0000 0000 0000 0000 000000
2013-08-24 00:59:30,-0.01,0.08,0.00,23.93,26.55,27.93,5.76,30.33,1016.14,2054.02,3462.99,3345.97,3627.00,348.88,321.76,16.76,0000 0000 0000 0000 000000
2013-08-24 01:00:30,-0.00,0.08,0.00,23.90,26.55,27.96,5.99,30.63,1016.13,2054.01,3462.98,3345.93,3627.00,350.21,323.03,16.77,0000 0000 0000 0000 000000
2013-08-24 01:01:30,0.00,0.08,0.00,23.89,26.55,27.93,5.86,30.46,1016.13,2054.01,3462.99,3345.94,3626.99,348.63,321.44,16.78,0000 0000 0000 0000 000000
2013-08-24 01:02:30,0.00,0.08,0.00,23.86,26.55,27.94,6.11,30.42,1016.13,2054.04,3462.99,3345.97,3626.99,351.43,324.18,16.78,0000 0000 0000 0000 000000
2013-08-24 01:03:31,0.02,0.08,0.00,23.84,26.55,27.93,5.98,30.38,1016.14,2054.09,3462.98,3345.97,3626.99,350.10,322.98,16.79,0000 0000 0000 0000 000000
2013-08-24 01:04:31,0.02,0.08,0.00,23.81,26.55,27.93,5.97,30.17,1016.13,2054.05,3462.95,3345.96,3626.99,350.44,323.34,16.79,0000 0000 0000 0000 000000
2013-08-24 01:05:31,-0.02,0.08,0.00,23.77,26.55,27.94,6.02,30.67,1016.14,2054.03,3462.98,3345.98,3626.99,350.31,323.28,16.80,0000 0000 0000 0000 000000
2013-08-24 01:06:31,-0.02,0.08,0.00,23.78,26.55,27.94,5.98,30.54,1016.13,2054.05,3462.99,3345.99,3626.99,349.42,322.73,16.81,0000 0000 0000 0000 000000
2013-08-24 01:07:32,0.02,0.08,0.00,23.83,26.55,27.96,6.08,30.50,1016.13,2054.07,3462.98,3345.99,3626.99,350.68,323.54,16.81,0000 0000 0000 0000 000000
2013-08-24 01:08:32,-0.01,0.08,0.00,23.83,26.55,27.98,5.92,30.50,1016.14,2054.04,3462.96,3345.98,3626.99,350.09,322.99,16.82,0000 0000 0000 0000 000000
2013-08-24 01:09:32,-0.01,0.08,0.00,23.84,26.55,27.98,5.80,30.33,1016.13,2054.04,3462.98,3345.97,3626.99,349.62,322.55,16.82,0000 0000 0000 0000 000000
2013-08-24 01:10:32,0.02,0.08,0.00,23.84,26.55,27.96,5.92,30.46,1016.13,2054.06,3462.98,3345.98,3626.99,350.53,323.38,16.83,0000 0000 0000 0000 000000
2013-08-24 01:11:33,-0.00,0.08,0.00,23.78,26.55,27.98,5.80,30.29,1016.13,2054.05,3462.98,3345.97,3626.99,348.92,321.95,16.84,0000 0000 0000 0000 000000
2013-08-24 01:12:33,-0.01,0.08,0.00,23.81,26.55,27.97,6.01,30.42,1016.13,2054.05,3462.98,3345.98,3626.99,350.30,323.17,16.84,0000 0000 0000 0000 000000
2013-08-24 01:13:33,0.00,0.08,0.00,23.82,26.55,27.99,5.85,30.33,1016.13,2054.04,3462.97,3345.95,3626.99,349.66,322.39,16.85,0000 0000 0000 0000 000000
2013-08-24 01:14:34,0.00,0.08,0.00,23.86,26.55,27.93,5.88,30.25,1016.13,2054.03,3462.92,3345.95,3626.99,349.46,322.63,16.85,0000 0000 0000 0000 000000
2013-08-24 01:15:34,0.00,0.08,0.00,23.88,26.55,27.94,5.96,30.25,1016.13,2054.02,3462.93,3345.97,3626.99,350.77,323.57,16.86,0000 0000 0000 0000 000000
2013-08-24 01:16:34,0.00,0.08,0.00,23.92,26.55,27.91,5.88,30.21,1016.13,2054.02,3462.95,3345.96,3626.99,349.97,323.14,16.86,0000 0000 0000 0000 000000
2013-08-24 01:17:34,0.00,0.08,0.00,23.92,26.55,27.91,5.82,30.46,1016.13,2054.01,3462.85,3345.96,3626.99,350.32,322.81,16.87,0000 0000 0000 0000 000000
2013-08-24 01:18:35,0.01,0.08,0.00,23.85,26.55,27.94,5.96,30.38,1016.13,2054.03,3462.85,3345.96,3626.99,349.07,322.02,16.88,0000 0000 0000 0000 000000
2013-08-24 01:19:35,0.02,0.08,0.00,23.83,26.55,27.90,5.96,30.38,1016.12,2054.07,3462.83,3345.96,3626.98,349.89,322.80,16.88,0000 0000 0000 0000 000000
2013-08-24 01:20:35,0.01,0.08,0.00,23.86,26.55,27.89,6.10,30.63,1016.12,2054.07,3462.83,3345.95,3626.99,350.49,323.32,16.89,0000 0000 0000 0000 000000
2013-08-24 01:21:36,0.00,0.08,0.00,23.85,26.55,27.94,5.92,30.71,1016.12,2054.07,3462.81,3345.95,3626.99,349.97,322.85,16.89,0000 0000 0000 0000 000000
2013-08-24 01:22:36,0.00,0.08,0.00,23.84,26.55,27.97,5.89,30.63,1016.13,2054.05,3462.88,3345.94,3626.99,349.38,322.33,16.90,0000 0000 0000 0000 000000
2013-08-24 01:23:36,-0.02,0.08,0.00,23.85,26.55,27.98,5.98,30.38,1016.12,2054.06,3462.91,3345.96,3626.99,350.49,323.57,16.91,0000 0000 0000 0000 000000
2013-08-24 01:24:36,-0.00,0.08,0.00,23.83,26.55,27.96,5.96,30.33,1016.13,2054.06,3462.88,3345.97,3626.99,349.64,322.19,16.91,0000 0000 0000 0000 000000
2013-08-24 01:25:36,0.00,0.08,0.00,23.82,26.55,27.95,5.90,30.38,1016.13,2054.05,3462.70,3345.98,3626.99,349.56,322.02,16.92,0000 0000 0000 0000 000000
2013-08-24 01:26:37,0.01,0.08,0.00,23.82,26.55,27.94,5.94,30.21,1016.13,2054.04,3462.48,3345.96,3626.99,350.58,323.24,16.92,0000 0000 0000 0000 000000
2013-08-24 01:27:37,0.03,0.08,0.00,23.79,26.55,27.96,6.03,30.29,1016.13,2054.03,3462.25,3345.90,3626.99,349.80,322.76,16.93,0000 0000 0000 0000 000000
2013-08-24 01:28:37,0.03,0.08,0.00,23.84,26.55,27.94,5.92,30.29,1016.13,2054.05,3462.29,3345.90,3626.99,350.63,323.03,16.93,0000 0000 0000 0000 000000
2013-08-24 01:29:37,0.01,0.08,0.00,23.85,26.55,27.91,5.84,30.50,1016.13,2054.04,3462.43,3345.86,3626.97,349.96,322.85,16.94,0000 0000 0000 0000 000000
2013-08-24 01:30:37,-0.01,0.08,0.00,23.87,26.55,27.91,5.81,30.25,1016.13,2054.02,3462.26,3345.70,3626.98,349.18,322.11,16.95,0000 0000 0000 0000 000000
2013-08-24 01:31:38,0.01,0.08,0.00,23.93,26.55,27.95,6.04,30.42,1016.13,2054.01,3462.17,3345.67,3626.97,350.39,322.87,16.95,0000 0000 0000 0000 000000
2013-08-24 01:32:38,0.03,0.08,0.00,23.89,26.55,27.97,6.11,30.75,1016.13,2054.03,3462.12,3345.69,3626.97,350.09,322.92,16.96,0000 0000 0000 0000 000000
2013-08-24 01:33:38,0.01,0.08,0.00,23.95,26.55,27.97,5.81,30.38,1016.13,2054.04,3462.07,3345.61,3626.97,349.92,322.71,16.96,0000 0000 0000 0000 000000
2013-08-24 01:34:38,0.02,0.08,0.00,23.93,26.55,27.94,6.07,30.21,1016.13,2054.03,3462.05,3345.60,3626.95,349.48,322.78,16.97,0000 0000 0000 0000 000000
2013-08-24 01:35:39,0.00,0.08,0.00,23.91,26.55,27.90,5.85,30.29,1016.13,2054.06,3462.11,3345.69,3626.97,349.61,322.46,16.98,0000 0000 0000 0000 000000
2013-08-24 01:36:39,-0.01,0.08,0.00,23.87,26.55,27.91,6.02,30.50,1016.13,2054.09,3462.12,3345.71,3626.98,349.96,322.82,16.98,0000 0000 0000 0000 000000
2013-08-24 01:37:39,0.00,0.08,0.00,23.86,26.55,27.95,5.98,30.42,1016.13,2054.06,3462.11,3345.63,3626.98,349.55,322.71,16.99,0000 0000 0000 0000 000000
2013-08-24 01:38:39,0.01,0.08,0.00,23.81,26.55,27.95,6.01,30.63,1016.12,2054.04,3462.07,3345.50,3626.96,350.42,323.31,16.99,0000 0000 0000 0000 000000
2013-08-24 01:39:40,0.00,0.08,0.00,23.82,26.55,27.95,6.03,30.63,1016.13,2054.05,3462.10,3345.47,3626.95,350.95,323.80,17.00,0000 0000 0000 0000 000000
2013-08-24 01:40:40,0.00,0.08,0.00,23.81,26.55,27.95,5.90,30.50,1016.12,2054.04,3462.15,3345.59,3626.98,350.05,322.93,17.01,0000 0000 0000 0000 000000
2013-08-24 01:41:40,-0.02,0.08,0.00,23.79,26.55,27.96,5.96,30.67,1016.13,2054.02,3462.09,3345.37,3626.93,349.85,322.81,17.01,0000 0000 0000 0000 000000
2013-08-24 01:42:41,0.05,0.08,0.00,23.78,26.55,27.98,5.88,30.58,1016.13,2054.03,3462.04,3345.34,3626.90,350.36,323.29,17.02,0000 0000 0000 0000 000000
2013-08-24 01:43:41,0.04,0.08,0.00,23.81,26.55,27.94,5.99,30.63,1016.13,2054.05,3462.02,3345.24,3626.84,350.77,323.64,17.02,0000 0000 0000 0000 000000
2013-08-24 01:44:41,0.01,0.08,0.00,23.79,26.55,27.97,6.01,30.67,1016.13,2054.05,3462.01,3345.33,3626.86,350.36,323.28,17.03,0000 0000 0000 0000 000000
2013-08-24 01:45:41,-0.04,0.08,0.00,23.84,26.55,27.97,6.02,30.75,1016.13,2054.04,3462.03,3345.35,3626.88,350.25,323.34,17.03,0000 0000 0000 0000 000000
2013-08-24 01:46:41,0.00,0.08,0.00,23.91,26.55,27.97,5.88,30.46,1016.13,2054.04,3462.04,3345.35,3626.89,350.67,323.24,17.04,0000 0000 0000 0000 000000
2013-08-24 01:47:42,0.01,0.08,0.00,23.98,26.55,27.94,6.01,30.54,1016.13,2054.04,3462.03,3345.35,3626.86,350.72,323.41,17.05,0000 0000 0000 0000 000000
2013-08-24 01:48:42,0.00,0.08,0.00,23.98,26.55,27.93,6.01,30.33,1016.13,2054.06,3462.02,3345.35,3626.86,351.08,323.74,17.05,0000 0000 0000 0000 000000
2013-08-24 01:49:42,0.00,0.08,0.00,23.96,26.55,27.97,5.99,30.29,1016.13,2054.07,3462.04,3345.34,3626.83,351.25,323.54,17.06,0000 0000 0000 0000 000000
2013-08-24 01:50:42,0.02,0.08,0.00,23.92,26.55,27.96,5.88,30.50,1016.13,2054.10,3462.03,3345.36,3626.88,349.69,322.52,17.06,0000 0000 0000 0000 000000
2013-08-24 01:51:43,0.01,0.08,0.00,23.94,26.55,27.96,5.84,30.33,1016.13,2054.08,3462.01,3345.26,3626.74,349.42,322.34,17.07,0000 0000 0000 0000 000000
2013-08-24 01:52:43,0.01,0.08,0.00,23.89,26.56,27.97,6.00,30.42,1016.13,2054.08,3462.02,3345.22,3626.72,350.23,323.05,17.08,0000 0000 0000 0000 000000
2013-08-24 01:53:43,0.00,0.08,0.00,23.86,26.56,28.00,5.95,30.42,1016.13,2054.09,3462.02,3345.23,3626.73,350.82,323.54,17.08,0000 0000 0000 0000 000000
2013-08-24 01:54:43,0.00,0.08,0.00,23.91,26.56,27.97,5.91,30.54,1016.13,2054.07,3462.01,3345.23,3626.80,348.58,321.94,17.09,0000 0000 0000 0000 000000
2013-08-24 01:55:44,0.00,0.08,0.00,23.90,26.56,27.98,5.91,30.46,1016.13,2054.05,3462.00,3345.18,3626.67,349.95,322.54,17.09,0000 0000 0000 0000 000000
2013-08-24 01:56:44,0.00,0.08,0.00,23.89,26.57,27.98,5.89,30.50,1016.13,2054.03,3462.00,3345.21,3626.58,349.45,322.35,17.10,0000 0000 0000 0000 000000
2013-08-24 01:57:44,0.00,0.08,0.00,23.92,26.56,27.96,5.88,30.46,1016.13,2054.03,3462.01,3345.12,3626.43,348.43,320.69,17.10,0000 0000 0000 0000 000000
2013-08-24 01:58:44,0.04,0.08,0.00,23.93,26.56,27.99,5.93,30.46,1016.13,2054.04,3462.00,3345.08,3626.33,349.12,321.99,17.11,0000 0000 0000 0000 000000
2013-08-24 01:59:45,0.01,0.08,0.00,23.96,26.57,27.98,5.90,30.42,1016.13,2054.02,3462.00,3345.07,3626.28,350.29,323.03,17.12,0000 0000 0000 0000 000000
2013-08-24 02:00:45,0.00,0.08,0.00,23.94,26.57,27.97,5.92,30.33,1016.13,2054.03,3462.00,3345.08,3626.25,349.90,322.70,17.12,0000 0000 0000 0000 000000
2013-08-24 02:01:45,0.01,0.08,0.00,23.93,26.57,27.95,5.98,30.67,1016.13,2054.07,3462.00,3345.06,3626.20,349.73,322.55,17.13,0000 0000 0000 0000 000000
2013-08-24 02:02:45,0.04,0.08,0.00,23.96,26.57,27.94,5.85,30.25,1016.13,2054.04,3462.00,3345.02,3626.13,349.22,322.05,17.13,0000 0000 0000 0000 000000
2013-08-24 02:03:45,-0.01,0.08,0.00,23.95,26.57,27.98,5.92,30.46,1016.13,2054.03,3462.00,3345.01,3626.07,350.70,323.42,17.14,0000 0000 0000 0000 000000
2013-08-24 02:04:45,-0.00,0.08,0.00,23.98,26.57,27.96,6.01,30.25,1016.13,2054.03,3462.00,3345.02,3626.08,351.17,323.83,17.15,0000 0000 0000 0000 000000
2013-08-24 02:05:45,0.01,0.08,0.00,23.98,26.57,28.00,5.87,30.38,1016.13,2054.03,3461.99,3345.03,3626.10,349.73,322.49,17.15,0000 0000 0000 0000 000000
2013-08-24 02:06:46,0.00,0.08,0.00,23.92,26.57,27.99,5.88,30.29,1016.13,2054.03,3461.99,3345.03,3626.08,349.86,322.61,17.16,0000 0000 0000 0000 000000
2013-08-24 02:07:46,0.00,0.08,0.00,23.84,26.57,27.97,5.96,30.38,1016.13,2054.04,3461.99,3345.01,3626.03,351.77,324.59,17.16,0000 0000 0000 0000 000000
2013-08-24 02:08:46,0.01,0.08,0.00,23.87,26.57,27.97,5.83,30.50,1016.13,2054.04,3461.99,3345.00,3626.01,349.29,322.46,17.17,0000 0000 0000 0000 000000
2013-08-24 02:09:46,0.00,0.08,0.00,23.89,26.57,27.98,5.83,30.29,1016.13,2054.03,3461.99,3345.00,3626.01,349.75,322.58,17.18,0000 0000 0000 0000 000000
2013-08-24 02:10:46,0.00,0.08,0.00,23.93,26.57,28.01,5.97,30.63,1016.13,2054.03,3461.99,3345.00,3626.00,349.96,322.52,17.18,0000 0000 0000 0000 000000
2013-08-24 02:11:46,-0.01,0.08,0.00,23.96,26.57,27.97,5.96,30.25,1016.13,2054.03,3461.99,3345.00,3626.00,350.26,323.01,17.19,0000 0000 0000 0000 000000
2013-08-24 02:12:47,-0.00,0.08,0.00,23.98,26.57,27.97,5.88,30.54,1016.13,2054.04,3461.98,3345.00,3626.00,349.20,322.00,17.19,0000 0000 0000 0000 000000
2013-08-24 02:13:47,0.00,0.08,0.00,23.95,26.57,27.96,5.92,30.46,1016.13,2054.05,3461.98,3345.00,3626.00,350.42,323.15,17.20,0000 0000 0000 0000 000000
2013-08-24 02:14:47,0.00,0.08,0.00,23.91,26.57,27.95,5.77,30.50,1016.11,2054.05,3461.94,3345.01,3626.01,348.21,321.17,17.20,0000 0000 0000 0000 000000
2013-08-24 02:15:47,0.00,0.08,0.00,23.87,26.57,28.00,6.03,30.25,1016.12,2054.03,3461.96,3345.00,3626.01,350.36,323.19,17.21,0000 0000 0000 0000 000000
2013-08-24 02:16:47,-0.01,0.08,0.00,23.89,26.57,27.98,5.95,30.50,1016.11,2054.03,3461.95,3345.00,3626.00,349.63,323.22,17.22,0000 0000 0000 0000 000000
2013-08-24 02:17:47,-0.00,0.08,0.00,23.89,26.57,27.97,5.88,30.50,1016.09,2054.03,3461.94,3345.00,3626.00,349.79,322.63,17.22,0000 0000 0000 0000 000000
2013-08-24 02:18:48,0.00,0.08,0.00,23.88,26.57,28.03,5.82,30.42,1016.12,2054.02,3461.89,3345.00,3626.00,349.00,321.92,17.23,0000 0000 0000 0000 000000
2013-08-24 02:19:48,0.00,0.08,0.00,23.90,26.57,28.03,5.75,30.46,1016.12,2054.03,3461.78,3345.00,3626.00,349.12,322.05,17.23,0000 0000 0000 0000 000000
2013-08-24 02:20:48,0.02,0.08,0.00,23.94,26.57,27.99,5.81,30.58,1016.13,2054.02,3461.74,3345.00,3626.00,348.33,321.24,17.24,0000 0000 0000 0000 000000
2013-08-24 02:21:48,0.00,0.08,0.00,23.98,26.57,28.01,5.98,30.38,1016.12,2054.01,3461.68,3345.00,3626.00,348.94,321.77,17.25,0000 0000 0000 0000 000000
2013-08-24 02:22:48,0.00,0.08,0.00,23.98,26.57,28.03,6.02,30.79,1016.13,2054.03,3461.73,3345.00,3626.00,350.19,322.91,17.25,0000 0000 0000 0000 000000
2013-08-24 02:23:49,-0.01,0.08,0.00,23.98,26.57,28.02,5.96,30.29,1016.12,2054.02,3461.68,3345.00,3626.00,350.96,323.96,17.26,0000 0000 0000 0000 000000
2013-08-24 02:24:49,-0.00,0.08,0.00,23.98,26.57,28.03,5.98,30.67,1016.07,2054.02,3461.62,3345.00,3626.00,349.27,322.21,17.26,0000 0000 0000 0000 000000
2013-08-24 02:25:49,0.01,0.08,0.00,23.97,26.57,27.99,6.05,30.54,1016.11,2054.02,3461.59,3345.00,3626.00,350.62,323.00,17.27,0000 0000 0000 0000 000000
2013-08-24 02:26:49,0.00,0.08,0.00,23.96,26.57,28.01,5.95,30.42,1016.13,2054.03,3461.64,3345.00,3626.00,350.78,323.32,17.27,0000 0000 0000 0000 000000
2013-08-24 02:27:49,0.02,0.08,0.00,23.95,26.57,28.00,6.03,30.83,1016.09,2054.03,3461.38,3345.00,3626.00,349.59,322.39,17.28,0000 0000 0000 0000 000000
2013-08-24 02:28:50,0.02,0.08,0.00,23.99,26.57,28.01,5.76,30.50,1016.12,2054.02,3461.16,3344.99,3625.98,349.46,322.24,17.29,0000 0000 0000 0000 000000
2013-08-24 02:29:50,0.02,0.08,0.00,24.02,26.57,27.99,5.80,30.25,1016.11,2054.01,3461.20,3344.98,3625.98,351.20,323.80,17.29,0000 0000 0000 0000 000000
2013-08-24 02:30:50,-0.01,0.08,0.00,23.97,26.57,27.94,5.95,30.75,1016.11,2054.01,3461.38,3344.99,3625.99,348.67,321.52,17.30,0000 0000 0000 0000 000000
2013-08-24 02:31:50,-0.02,0.08,0.00,23.99,26.57,28.00,5.82,30.50,1016.11,2054.01,3461.24,3344.98,3625.99,348.91,321.67,17.30,0000 0000 0000 0000 000000
2013-08-24 02:32:51,0.03,0.08,0.00,23.98,26.57,27.96,5.78,30.46,1016.13,2054.02,3461.21,3344.96,3625.99,349.11,321.92,17.31,0000 0000 0000 0000 000000
2013-08-24 02:33:51,0.01,0.08,0.00,23.95,26.57,27.93,5.96,30.54,1016.11,2054.02,3461.26,3344.98,3625.98,350.79,323.71,17.32,0000 0000 0000 0000 000000
2013-08-24 02:34:51,-0.02,0.08,0.00,24.00,26.57,27.97,5.87,30.33,1016.12,2054.02,3461.28,3344.98,3625.98,350.46,322.97,17.32,0000 0000 0000 0000 000000
2013-08-24 02:35:51,0.00,0.08,0.00,24.06,26.57,27.99,5.97,30.63,1016.13,2054.03,3461.24,3344.99,3625.99,349.55,322.45,17.33,0000 0000 0000 0000 000000